Location: Piotrkow Trybunalski
(51.4000°N, 19.6830°E)
Time: 09:26:06
(UTC+01:00)

N. Korean satellite - Visible Passes

Search period start: 06 December 2022 00:00
Search period end: 16 December 2022 00:00
Orbit: 421 x 453 km, 97.3° (Epoch: 04 December)

Date Brightness Start Highest point End Pass type
(mag) Time Alt. Az. Time Alt. Az. Time Alt. Az.
06 Dec 7.9 04:42:47 10° NNE 04:46:00 37° E 04:49:10 10° SSE visible
06 Dec 7.8 06:15:48 10° NNW 06:18:17 19° WNW 06:20:44 10° WSW visible
06 Dec 9.1 16:49:49 10° SSW 16:52:38 24° W 16:55:29 10° NW visible
07 Dec 9.6 04:04:51 10° NE 04:06:47 14° E 04:08:42 10° SE visible
07 Dec 6.5 05:36:16 10° N 05:39:33 47° WNW 05:42:49 10° SW visible
07 Dec 6.8 16:10:07 10° S 16:13:30 69° WSW 16:16:57 10° NNW visible
08 Dec 7.0 04:57:14 10° NNE 05:00:35 56° E 05:03:54 10° S visible
08 Dec 8.2 06:30:51 10° NNW 06:32:42 14° WNW 06:34:30 10° W visible
08 Dec 9.6 17:04:56 10° SW 17:07:15 17° W 17:09:35 10° NW visible
09 Dec 9.1 04:18:47 10° NE 04:21:23 20° E 04:23:56 10° SE visible
09 Dec 7.0 05:50:53 10° N 05:53:59 33° WNW 05:57:01 10° SW visible
09 Dec 7.7 16:24:42 10° S 16:27:59 45° W 16:31:19 10° NNW visible
10 Dec 6.3 05:11:37 10° NNE 05:15:02 85° ESE 05:18:22 10° SSW visible
10 Dec 8.5 06:46:31 10° NW 06:46:56 10° WNW 06:47:22 10° WNW visible
10 Dec 9.9 17:20:20 10° WSW 17:21:46 12° W 17:23:13 10° WNW visible
11 Dec 8.4 04:32:50 10° NE 04:35:49 28° E 04:38:46 10° SSE visible
11 Dec 7.5 06:05:28 10° NNW 06:08:14 23° WNW 06:10:57 10° WSW visible
11 Dec 8.5 16:39:18 10° SSW 16:42:22 31° W 16:45:28 10° NNW visible
12 Dec 9.9 03:55:26 10° ENE 03:56:22 11° E 03:57:18 10° ESE visible
12 Dec 6.2 05:25:55 10° N 05:29:17 64° WNW 05:32:35 10° SSW visible
13 Dec 7.6 04:46:53 10° NNE 04:50:06 41° E 04:53:16 10° S visible
13 Dec 7.9 06:20:02 10° NNW 06:22:19 17° WNW 06:24:35 10° WSW visible
13 Dec 9.2 16:53:55 10° SSW 16:56:38 22° W 16:59:23 10° NW visible
14 Dec 9.5 04:08:35 10° NE 04:11:45 13° ESE 04:12:42 10° SE visible
14 Dec 7.2 05:40:10 10° N 05:45:11 22° SW 05:46:33 10° SW visible
14 Dec 7.0 16:13:54 10° S 16:17:15 62° WSW 16:20:40 10° NNW visible
15 Dec 8.4 05:00:52 10° NNE 05:06:20 20° S 05:07:30 10° S visible
15 Dec 8.4 06:34:41 10° NNW 06:39:44 - WSW 06:35:25 12° NW visible
15 Dec 9.6 17:08:37 10° SW 17:10:48 16° W 17:12:58 10° NW visible
